Regional Weather Roundup
Issued by NWS Green Bay, WI

Home | Current Version | Previous Version | Text Only | Print | Product List | Glossary On
Versions: 1 2 3 4 5 6 7 8 9 10 11 12 13 14 15 16 17 18 19 20 21 22 23 24 25 26 27 28 29 30 31 32 33 34 35 36 37 38 39 40 41 42 43 44 45 46 47 48 49 50
000
ASUS43 KGRB 240911
RWRGRB

NORTH-CENTRAL AND NORTHEAST WISCONSIN REGIONAL WEATHER ROUNDUP
NATIONAL WEATHER SERVICE GREEN BAY WI
400 AM CDT SUN JUL 24 2016

WIZ005-009-010>012-018-019-241000-
NORTH CENTRAL WISCONSIN

CITY           SKY/WX    TMP DP  RH WIND       PRES   REMARKS
IRONWOOD       CLOUDY    70  66  88 SW9       29.79R
MANITOWISH WTR CLOUDY    68  68 100 SW6       29.84S
ARBOR VITAE    CLOUDY    72  70  95 SW7       29.85R
EAGLE RIVER    CLOUDY    68  68 100 CALM      29.85S
LAND O LAKES   CLOUDY    69  68  98 CALM      29.86S
RHINELANDER    CLOUDY    70  68  93 S6        29.86S
PHILLIPS       CLOUDY    68  67  99 S3        29.82S
ANTIGO         CLOUDY    68  68 100 CALM      29.86S
TOMAHAWK       CLOUDY    67  66  96 CALM      29.85S FOG
MERRILL        CLOUDY    69  69 100 CALM      29.86R
$$

WIZ013-073-241000-
NORTHEAST WISCONSIN

CITY           SKY/WX    TMP DP  RH WIND       PRES   REMARKS
IRON MOUNTAIN  CLOUDY    69  66  90 SE5       29.83F FOG
MARINETTE      CLOUDY    73  71  93 SW5       29.83F
OCONTO         CLOUDY   N/A N/A N/A CALM      29.82F
$$

WIZ017-030-035>037-045-241000-
CENTRAL WISCONSIN

CITY           SKY/WX    TMP DP  RH WIND       PRES   REMARKS
MEDFORD        CLOUDY    68  68 100 S5        29.83F
WAUSAU         CLOUDY    70  69  97 S9        29.83R
MOSINEE        CLOUDY    68  68 100 SE5       29.85F
MARSHFIELD     CLOUDY    71  68  90 S5        29.83S
WISC RAPIDS    CLOUDY    71  68  90 CALM      29.85S
STEVENS POINT  CLOUDY    69  69  99 CALM      29.85S
WAUPACA        CLOUDY    73  73  99 CALM      29.84F
SHAWANO        CLOUDY    73  70  91 S3        29.84S
CLINTONVILLE   CLOUDY    70  70 100 S7        29.84S
WAUTOMA        CLOUDY    71  70  96 SE5       29.85F
$$

WIZ038-039-048-051-241000-
FOX VALLEY

CITY           SKY/WX    TMP DP  RH WIND       PRES   REMARKS
NWS GREEN BAY  CLOUDY    72  72 100 S10       29.84F
APPLETON       CLOUDY    70  70 100 S8        29.84F
OSHKOSH        CLOUDY    72  69  90 N7        29.87R
FOND DU LAC    CLOUDY    73  69  87 NW5       29.86R
$$

WIZ022-050-052-241000-
EAST CENTRAL WISCONSIN

CITY           SKY/WX    TMP DP  RH WIND       PRES   REMARKS
EPHRAIM        CLOUDY    69  67  92 CALM      29.85R
WASHINGTON ISL NOT AVBL
STURGEON BAY   CLOUDY    69  67  93 S5        29.85F
MANITOWOC      TSTM      70  67  90 S16       29.86F
SHEBOYGAN      TSTM     N/A N/A N/A MISG      29.88R
$$

LMZ563-521-522-541>543-241000-
LAKESHORE

STATION/POSITION TIME  TEMP    WIND        PRES    VSBY  WAVE
                       AIR SEA DIR/SP/G                  HT/PER
                 (UTC) (F)     (DEG/KT/KT) (MB)    (MI)  (FT/S)
SHEBOYGAN LKSHOR 0900   63      20/  9/ 15 1012.8R
KEWAUNEE LKSHORE 0800   60      CALM  /  1 1011.1R
NORTHPORT PIER   0800   72     150/  8/ 13 1010.8F
N MID LAKE BUOY  0850   72 71  180/  8/  8 1010.5F         0
S GREEN BAY BUOY 0800   74 75  200/ 14/ 17   N/A
CHAMBERS ISLAND  0800   72     130/  5/  9 1010.5F
MENOMINEE LKSHOR 0800   74     170/  7/  9 1009.4F
$$



USA.gov is the U.S. government's official web portal to all federal, state and local government web resources and services.